This demonstration page uses our WeatherBlox Daily Observations layout. Learn more.

Hourly Observations for August 9, 2017

Temp ( °F °C ) Dew Point ( °F °C ) Humidity (%) Winds ( mph kmh ) Pressure ( in mb ) Visibility ( mi km ) Precip ( " mm )
12:15 am 00:15 Cloudy 67 19.2 60 15.8 81 81 SSE 5 7 30.06 1018 10 16.09344 0 0
12:35 am 00:35 Cloudy 66 19 61 16 83 83 S 3 6 30.06 1018 10 16.09344 0 0
12:55 am 00:55 Cloudy 66 18.7 60 15.7 83 83 SSW 5 7 30.06 1018 10 16.09344 0 0
1:15 am 01:15 Mostly Cloudy 66 19 60 15.6 81 81 S 3 6 30.06 1018 10 16.09344 0 0
1:35 am 01:35 Cloudy 65 18.3 61 15.9 86 86 SE 3 6 30.06 1018 10 16.09344 0 0
1:55 am 01:55 Mostly Cloudy 65 18.1 60 15.7 86 86 SE 5 7 30.03 1017 10 16.09344 0 0
2:15 am 02:15 Partly Cloudy 64 18 60 15.6 86 86 S 5 7 30.03 1017 10 16.09344 0 0
2:35 am 02:35 Clear 64 18 59 15 83 83 SSW 5 7 30.06 1018 10 16.09344 0 0
2:55 am 02:55 Mostly Cloudy 64 17.8 60 15.5 86 86 SSW 3 6 30.06 1018 10 16.09344 0 0
3:15 am 03:15 Cloudy 64 17.8 60 15.7 88 88 SW 6 9 30.06 1018 10 16.09344 0 0
3:35 am 03:35 Cloudy with Light Drizzle 65 18.5 61 16 85 85 SW 7 11 30.06 1018 10 16.09344 0 0
3:55 am 03:55 Cloudy with Light Rain 65 18.3 61 16 87 87 SW 3 6 30.06 1018 10 16.09344 0.01 0.254
4:15 am 04:15 Cloudy 65 18.3 61 15.9 86 86 S 7 11 30.06 1018 10 16.09344 0 0
4:35 am 04:35 Cloudy 64 18 60 15.6 86 86 SSW 8 13 30.06 1018 10 16.09344 0 0
4:55 am 04:55 Cloudy 64 18 59 15.2 84 84 S 12 19 30.03 1017 10 16.09344 0 0
5:15 am 05:15 Mostly Cloudy with Light Rain 64 17.6 59 15.2 86 86 S 8 13 30.03 1017 10 16.09344 0 0
5:35 am 05:35 Partly Cloudy with Light Rain 63 17.3 59 15.2 88 88 SSE 7 11 30.03 1017 10 16.09344 0 0
5:55 am 05:55 Mostly Cloudy with Light Drizzle 63 17.2 60 15.3 89 89 S 9 15 30.03 1017 10 16.09344 0 0
6:15 am 06:15 Cloudy 63 17.3 60 15.5 89 89 S 8 13 30.03 1017 10 16.09344 0 0
6:35 am 06:35 Cloudy 63 17.2 59 15.2 88 88 S 7 11 30.03 1017 10 16.09344 0 0
6:55 am 06:55 Cloudy 63 17.2 60 15.4 89 89 S 12 19 30.03 1017 10 16.09344 0 0
7:15 am 07:15 Cloudy 63 17.2 60 15.3 89 89 S 8 13 30.03 1017 10 16.09344 0 0
7:35 am 07:35 Cloudy 63 17.1 60 15.5 90 90 S 9 15 30.03 1017 10 16.09344 0 0
7:55 am 07:55 Mostly Cloudy 64 17.5 60 15.5 88 88 S 12 19 30.03 1017 10 16.09344 0 0
8:15 am 08:15 Cloudy 65 18.2 60 15.8 86 86 S 10 17 30.03 1017 10 16.09344 0 0
8:35 am 08:35 Cloudy 64 18 60 15.7 87 87 S 10 17 30.03 1017 10 16.09344 0 0
8:55 am 08:55 Cloudy 65 18.1 61 16 88 88 S 8 13 30.06 1018 10 16.09344 0 0
9:15 am 09:15 Cloudy 65 18.5 61 16.1 86 86 S 10 17 30.06 1018 10 16.09344 0 0
9:35 am 09:35 Mostly Cloudy 66 18.7 61 16.3 86 86 S 10 17 30.03 1017 10 16.09344 0 0
9:55 am 09:55 Cloudy 67 19.7 62 16.6 82 82 S 9 15 30.06 1018 10 16.09344 0 0
10:15 am 10:15 Cloudy 67 19.7 62 16.5 82 82 S 10 17 30.03 1017 10 16.09344 0 0
10:35 am 10:35 Partly Cloudy 69 20.5 62 16.6 78 78 S 12 19 30 1016 10 16.09344 0 0
10:55 am 10:55 Sunny 70 21.2 62 16.6 75 75 S 15 24 30 1016 10 16.09344 0 0
11:15 am 11:15 Partly Cloudy 71 21.7 62 16.6 73 73 S 16 26 30 1016 10 16.09344 0 0
11:35 am 11:35 Mostly Cloudy 72 22.4 63 17.1 72 72 S 13 20 30 1016 10 16.09344 0 0
11:55 am 11:55 Cloudy 72 22 63 17 73 73 SSW 13 20 30 1016 10 16.09344 0 0
12:15 pm 12:15 Cloudy 72 22.1 63 17 73 73 S 10 17 30 1016 10 16.09344 0 0
12:35 pm 12:35 Cloudy 73 22.5 63 17.2 72 72 S 9 15 30 1016 10 16.09344 0 0
12:55 pm 12:55 Cloudy 74 23.1 64 17.5 71 71 S 13 20 30 1016 10 16.09344 0 0
1:15 pm 13:15 Cloudy 74 23.5 64 17.5 69 69 S 9 15 30 1016 10 16.09344 0 0
1:35 pm 13:35 Cloudy 75 23.9 64 17.7 68 68 S 9 15 30 1016 10 16.09344 0 0
1:55 pm 13:55 Mostly Cloudy 76 24.2 64 17.9 68 68 S 9 15 29.97 1015 10 16.09344 0 0
2:15 pm 14:15 Mostly Cloudy 76 24.6 64 17.8 66 66 SSW 8 13 29.97 1015 10 16.09344 0 0
2:35 pm 14:35 Mostly Cloudy 76 24.7 63 17.4 64 64 S 10 17 29.97 1015 10 16.09344 0 0
2:55 pm 14:55 Mostly Cloudy 78 25.3 64 17.8 63 63 SSW 6 9 29.94 1014 10 16.09344 0 0
3:15 pm 15:15 Mostly Cloudy 78 25.5 64 17.6 62 62 SSE 5 7 29.94 1014 10 16.09344 0 0
3:35 pm 15:35 Mostly Cloudy 78 25.7 65 18.1 63 63 SSE 9 15 29.94 1014 10 16.09344 0 0
3:55 pm 15:55 Partly Cloudy 78 25.8 65 18.2 63 63 S 7 11 29.94 1014 10 16.09344 0 0
4:15 pm 16:15 Partly Cloudy 79 25.9 64 18 62 62 S 7 11 29.91 1013 10 16.09344 0 0
4:35 pm 16:35 Partly Cloudy 77 25 64 17.9 65 65 SSE 5 7 29.91 1013 10 16.09344 0 0
4:55 pm 16:55 Partly Cloudy with Nearby Thunderstorms 76 24.6 65 18.2 68 68 SE 5 7 29.91 1013 10 16.09344 0 0
5:15 pm 17:15 Sunny 74 23.5 67 19.2 77 77 ESE 5 7 29.97 1015 10 16.09344 0 0
5:35 pm 17:35 Partly Cloudy 74 23.2 67 19.4 79 79 E 5 7 29.97 1015 10 16.09344 0 0
5:55 pm 17:55 Mostly Cloudy 73 23 68 19.8 82 82 E 8 13 29.97 1015 10 16.09344 0 0
6:15 pm 18:15 Cloudy with Light Rain 73 22.6 68 19.9 85 85 E 10 17 29.97 1015 10 16.09344 0 0
6:35 pm 18:35 Mostly Cloudy 67 19.7 64 17.6 88 88 ENE 12 19 30.03 1017 10 16.09344 0 0
6:55 pm 18:55 Sunny with Nearby Thunderstorms 68 20.2 64 17.7 86 86 ENE 13 20 30.03 1017 10 16.09344 0 0
7:15 pm 19:15 Sunny 69 20.5 64 17.7 84 84 E 7 11 29.97 1015 10 16.09344 0 0
7:35 pm 19:35 Sunny 69 20.4 64 17.9 86 86 SE 7 11 29.97 1015 10 16.09344 0 0
7:55 pm 19:55 Sunny 69 20.4 65 18.1 87 87 SE 6 9 29.97 1015 10 16.09344 0 0
8:15 pm 20:15 Sunny 69 20.5 65 18.1 86 86 S 7 11 29.97 1015 10 16.09344 0 0
8:35 pm 20:35 Sunny 68 20 64 17.8 87 87 S 6 9 30 1016 10 16.09344 0 0
8:55 pm 20:55 Clear 67 19.5 64 17.6 89 89 S 6 9 30 1016 10 16.09344 0 0
9:15 pm 21:15 Clear 67 19.3 63 17 87 87 SSW 5 7 30 1016 10 16.09344 0 0
9:35 pm 21:35 Clear 66 18.9 62 16.8 88 88 S 6 9 30.03 1017 10 16.09344 0 0
9:55 pm 21:55 Clear 67 19.3 62 16.8 86 86 SSW 7 11 30.03 1017 10 16.09344 0 0
10:15 pm 22:15 Clear 66 19 62 16.8 87 87 SW 6 9 30.03 1017 10 16.09344 0 0
10:35 pm 22:35 Clear 65 18.5 62 16.6 89 89 SW 5 7 30.03 1017 10 16.09344 0 0
10:55 pm 22:55 Clear 65 18.2 62 16.7 91 91 SW 3 6 30.03 1017 10 16.09344 0 0
11:15 pm 23:15 Clear 65 18.6 63 17.2 92 92 SSW 5 7 30.03 1017 10 16.09344 0 0
11:35 pm 23:35 Clear 65 18.3 63 17 92 92 SSW 5 7 30.03 1017 10 16.09344 0 0
11:55 pm 23:55 Clear 65 18.1 63 17 93 93 Calm 30.03 1017 7 11.265408 0 0

Powered by AerisWeather